Time,TemperatureF,DewpointF,PressureIn,WindDirection,WindDirectionDegrees,WindSpeedMPH,WindSpeedGustMPH,Humidity,HourlyPrecipIn,Conditions,Clouds,dailyrainin,SoftwareType,DateUTC
2013-03-09 00:04:00,33.3,29.3,28.76,SE,135,13.0,15.4,85,0.00,,,-99.99,FreeWX-Wi 1.01,2013-03-09 06:04:00,
2013-03-09 00:09:00,33.3,29.3,28.76,SE,135,13.0,15.4,85,0.00,,,-99.99,FreeWX-Wi 1.01,2013-03-09 06:09:00,
2013-03-09 00:14:00,33.4,29.5,28.76,SE,134,13.0,16.8,85,0.00,,,-99.99,FreeWX-Wi 1.01,2013-03-09 06:14:00,
2013-03-09 00:19:00,33.4,29.5,28.76,SE,134,13.0,15.4,85,0.00,,,-99.99,FreeWX-Wi 1.01,2013-03-09 06:19:00,
2013-03-09 00:24:00,33.4,29.5,28.76,SE,133,13.0,15.0,85,0.00,,,-99.99,FreeWX-Wi 1.01,2013-03-09 06:24:00,
2013-03-09 00:29:00,33.4,29.1,28.76,SE,133,13.0,15.4,84,0.00,,,-99.99,FreeWX-Wi 1.01,2013-03-09 06:29:00,
2013-03-09 00:34:00,33.6,29.3,28.76,SE,134,13.0,15.4,84,0.00,,,-99.99,FreeWX-Wi 1.01,2013-03-09 06:34:00,
2013-03-09 00:39:00,33.4,29.5,28.76,SE,135,12.0,15.4,85,0.00,,,-99.99,FreeWX-Wi 1.01,2013-03-09 06:39:00,
2013-03-09 00:44:00,33.6,29.7,28.76,SE,136,12.0,15.4,85,0.00,,,-99.99,FreeWX-Wi 1.01,2013-03-09 06:44:00,
2013-03-09 00:50:00,33.6,29.7,28.76,SE,138,12.0,15.4,85,0.00,,,-99.99,FreeWX-Wi 1.01,2013-03-09 06:50:00,
2013-03-09 00:55:00,33.6,29.7,28.76,SE,140,12.0,16.3,85,0.04,,,-99.99,FreeWX-Wi 1.01,2013-03-09 06:55:00,
2013-03-09 01:00:00,33.6,29.8,28.76,SE,141,12.0,16.3,86,0.04,,,-99.99,FreeWX-Wi 1.01,2013-03-09 07:00:00,
2013-03-09 01:05:00,33.8,29.8,28.73,SE,141,12.0,17.9,85,0.04,,,-99.99,FreeWX-Wi 1.01,2013-03-09 07:05:00,
2013-03-09 01:10:00,33.8,30.0,28.73,SE,141,13.0,17.0,86,0.04,,,-99.99,FreeWX-Wi 1.01,2013-03-09 07:10:00,
2013-03-09 01:15:00,34.0,30.2,28.73,SE,142,14.0,19.7,86,0.04,,,-99.99,FreeWX-Wi 1.01,2013-03-09 07:15:00,
2013-03-09 01:20:00,34.0,30.2,28.76,SE,142,14.0,17.9,86,0.04,,,-99.99,FreeWX-Wi 1.01,2013-03-09 07:20:00,
2013-03-09 01:25:00,33.8,30.4,28.76,SE,142,14.0,15.4,87,0.04,,,-99.99,FreeWX-Wi 1.01,2013-03-09 07:25:00,
2013-03-09 01:30:00,33.8,30.4,28.76,SE,142,14.0,17.9,87,0.04,,,-99.99,FreeWX-Wi 1.01,2013-03-09 07:30:00,
2013-03-09 01:35:00,34.0,30.6,28.73,SE,143,14.0,18.3,87,0.04,,,-99.99,FreeWX-Wi 1.01,2013-03-09 07:35:00,
2013-03-09 01:41:00,34.0,30.7,28.73,SE,143,13.0,18.3,88,0.04,,,-99.99,FreeWX-Wi 1.01,2013-03-09 07:41:00,
2013-03-09 01:46:00,34.0,30.7,28.73,SE,143,13.0,19.2,88,0.04,,,-99.99,FreeWX-Wi 1.01,2013-03-09 07:46:00,
2013-03-09 01:51:00,34.0,31.1,28.73,SE,143,13.0,20.1,89,0.04,,,-99.99,FreeWX-Wi 1.01,2013-03-09 07:51:00,
2013-03-09 01:56:00,33.8,30.9,28.73,SE,143,14.0,16.8,89,0.00,,,-99.99,FreeWX-Wi 1.01,2013-03-09 07:56:00,
2013-03-09 02:01:00,33.8,31.5,28.73,SE,142,13.0,16.8,91,0.04,,,-99.99,FreeWX-Wi 1.01,2013-03-09 08:01:00,
2013-03-09 02:06:00,33.8,32.0,28.73,SE,140,14.0,16.8,93,0.04,,,-99.99,FreeWX-Wi 1.01,2013-03-09 08:06:00,
2013-03-09 02:11:00,33.6,32.4,28.73,SE,139,14.0,16.3,95,0.04,,,-99.99,FreeWX-Wi 1.01,2013-03-09 08:11:00,
2013-03-09 02:17:00,33.8,32.5,28.70,SE,138,14.0,16.8,95,0.08,,,-99.99,FreeWX-Wi 1.01,2013-03-09 08:17:00,
2013-03-09 02:22:00,33.8,32.5,28.70,SE,137,13.0,17.0,95,0.08,,,-99.99,FreeWX-Wi 1.01,2013-03-09 08:22:00,
2013-03-09 02:27:00,33.8,32.7,28.70,SE,136,14.0,17.4,96,0.08,,,-99.99,FreeWX-Wi 1.01,2013-03-09 08:27:00,
2013-03-09 02:32:00,33.8,32.7,28.70,SE,136,14.0,17.9,96,0.08,,,-99.99,FreeWX-Wi 1.01,2013-03-09 08:32:00,
2013-03-09 02:37:00,33.8,32.7,28.70,SE,136,14.0,19.2,96,0.12,,,-99.99,FreeWX-Wi 1.01,2013-03-09 08:37:00,
2013-03-09 02:42:00,34.0,33.3,28.70,SE,136,14.0,18.3,97,0.12,,,-99.99,FreeWX-Wi 1.01,2013-03-09 08:42:00,
2013-03-09 02:47:00,34.0,33.3,28.70,SE,136,14.0,19.7,97,0.12,,,-99.99,FreeWX-Wi 1.01,2013-03-09 08:47:00,
2013-03-09 02:52:00,34.0,33.3,28.70,SE,136,14.0,18.3,97,0.16,,,-99.99,FreeWX-Wi 1.01,2013-03-09 08:52:00,
2013-03-09 02:57:00,34.0,33.3,28.70,SE,137,14.0,20.6,97,0.12,,,-99.99,FreeWX-Wi 1.01,2013-03-09 08:57:00,
2013-03-09 03:02:00,34.0,33.3,28.67,SE,137,14.0,20.1,97,0.12,,,-99.99,FreeWX-Wi 1.01,2013-03-09 09:02:00,
2013-03-09 03:07:00,34.2,33.4,28.67,SE,137,14.0,20.6,97,0.12,,,-99.99,FreeWX-Wi 1.01,2013-03-09 09:07:00,
2013-03-09 03:13:00,34.3,33.6,28.67,SE,137,15.0,21.5,97,0.16,,,-99.99,FreeWX-Wi 1.01,2013-03-09 09:13:00,
2013-03-09 03:18:00,34.3,33.3,28.67,SE,138,15.0,23.7,96,0.12,,,-99.99,FreeWX-Wi 1.01,2013-03-09 09:18:00,
2013-03-09 03:23:00,34.2,33.1,28.67,SE,138,16.0,19.2,96,0.16,,,-99.99,FreeWX-Wi 1.01,2013-03-09 09:23:00,
2013-03-09 03:28:00,34.2,33.1,28.67,SE,138,16.0,20.6,96,0.16,,,-99.99,FreeWX-Wi 1.01,2013-03-09 09:28:00,
2013-03-09 03:33:00,34.0,33.3,28.64,SE,136,16.0,22.4,97,0.16,,,-99.99,FreeWX-Wi 1.01,2013-03-09 09:33:00,
2013-03-09 03:38:00,34.2,33.4,28.64,SE,135,17.0,22.4,97,0.16,,,-99.99,FreeWX-Wi 1.01,2013-03-09 09:38:00,
2013-03-09 03:43:00,34.2,33.4,28.64,SE,134,17.0,21.5,97,0.16,,,-99.99,FreeWX-Wi 1.01,2013-03-09 09:43:00,
2013-03-09 03:48:00,34.2,33.4,28.64,SE,134,17.0,20.6,97,0.20,,,-99.99,FreeWX-Wi 1.01,2013-03-09 09:48:00,
2013-03-09 03:53:00,34.2,33.4,28.64,SE,134,16.0,19.2,97,0.16,,,-99.99,FreeWX-Wi 1.01,2013-03-09 09:53:00,
2013-03-09 03:58:00,34.2,33.4,28.64,SE,134,17.0,20.1,97,0.16,,,-99.99,FreeWX-Wi 1.01,2013-03-09 09:58:00,
2013-03-09 04:03:00,34.0,33.3,28.64,SE,135,17.0,21.5,97,0.16,,,-99.99,FreeWX-Wi 1.01,2013-03-09 10:03:00,
2013-03-09 04:08:00,34.0,33.3,28.64,SE,135,16.0,21.9,97,0.16,,,-99.99,FreeWX-Wi 1.01,2013-03-09 10:08:00,
2013-03-09 04:14:00,34.0,33.4,28.64,SE,135,16.0,20.1,98,0.16,,,-99.99,FreeWX-Wi 1.01,2013-03-09 10:14:00,
2013-03-09 04:19:00,34.0,33.4,28.64,SE,135,16.0,21.9,98,0.16,,,-99.99,FreeWX-Wi 1.01,2013-03-09 10:19:00,
2013-03-09 04:24:00,34.0,33.3,28.64,SE,134,16.0,22.4,97,0.12,,,-99.99,FreeWX-Wi 1.01,2013-03-09 10:24:00,
2013-03-09 04:29:00,34.0,33.3,28.64,SE,133,17.0,18.8,97,0.16,,,-99.99,FreeWX-Wi 1.01,2013-03-09 10:29:00,
2013-03-09 04:34:00,34.0,33.3,28.61,SE,133,17.0,23.3,97,0.12,,,-99.99,FreeWX-Wi 1.01,2013-03-09 10:34:00,
2013-03-09 04:39:00,34.0,33.3,28.61,SE,133,17.0,21.5,97,0.12,,,-99.99,FreeWX-Wi 1.01,2013-03-09 10:39:00,
2013-03-09 04:44:00,33.8,32.7,28.61,SE,133,17.0,19.2,96,0.12,,,-99.99,FreeWX-Wi 1.01,2013-03-09 10:44:00,
2013-03-09 04:49:00,33.8,32.7,28.61,SE,134,17.0,20.6,96,0.08,,,-99.99,FreeWX-Wi 1.01,2013-03-09 10:49:00,
2013-03-09 04:54:00,34.0,33.3,28.61,SE,135,16.0,20.1,97,0.12,,,-99.99,FreeWX-Wi 1.01,2013-03-09 10:54:00,
2013-03-09 04:59:00,34.0,33.3,28.61,SE,137,16.0,18.3,97,0.12,,,-99.99,FreeWX-Wi 1.01,2013-03-09 10:59:00,
2013-03-09 05:04:00,34.0,33.3,28.64,SE,140,16.0,17.4,97,0.12,,,-99.99,FreeWX-Wi 1.01,2013-03-09 11:04:00,
2013-03-09 05:09:00,34.2,33.4,28.64,SE,141,15.0,17.0,97,0.08,,,-99.99,FreeWX-Wi 1.01,2013-03-09 11:09:00,
2013-03-09 05:15:00,34.2,33.1,28.64,SE,142,14.0,16.3,96,0.08,,,-99.99,FreeWX-Wi 1.01,2013-03-09 11:15:00,
2013-03-09 05:20:00,34.2,33.1,28.64,SE,143,14.0,17.4,96,0.08,,,-99.99,FreeWX-Wi 1.01,2013-03-09 11:20:00,
2013-03-09 05:25:00,34.3,32.7,28.64,SE,142,14.0,20.6,94,0.04,,,-99.99,FreeWX-Wi 1.01,2013-03-09 11:25:00,
2013-03-09 05:30:00,34.3,32.5,28.64,SE,142,14.0,22.4,93,0.04,,,-99.99,FreeWX-Wi 1.01,2013-03-09 11:30:00,
2013-03-09 05:35:00,34.3,32.5,28.61,SE,142,14.0,18.3,93,0.04,,,-99.99,FreeWX-Wi 1.01,2013-03-09 11:35:00,
2013-03-09 05:40:00,34.2,32.5,28.61,SE,142,15.0,21.5,94,0.08,,,-99.99,FreeWX-Wi 1.01,2013-03-09 11:40:00,
2013-03-09 05:45:00,34.2,32.9,28.61,SE,142,15.0,17.4,95,0.08,,,-99.99,FreeWX-Wi 1.01,2013-03-09 11:45:00,
2013-03-09 05:50:00,34.2,32.9,28.64,SE,143,15.0,16.3,95,0.04,,,-99.99,FreeWX-Wi 1.01,2013-03-09 11:50:00,
2013-03-09 05:55:00,34.0,32.9,28.64,SE,143,14.0,18.8,96,0.04,,,-99.99,FreeWX-Wi 1.01,2013-03-09 11:55:00,
2013-03-09 06:00:00,34.0,32.9,28.64,SE,144,14.0,17.9,96,0.04,,,-99.99,FreeWX-Wi 1.01,2013-03-09 12:00:00,
2013-03-09 06:06:00,34.0,33.3,28.61,SE,144,14.0,18.8,97,0.04,,,-99.99,FreeWX-Wi 1.01,2013-03-09 12:06:00,
2013-03-09 06:11:00,34.0,33.3,28.61,SE,145,14.0,19.7,97,0.04,,,-99.99,FreeWX-Wi 1.01,2013-03-09 12:11:00,
2013-03-09 06:16:00,34.0,33.3,28.61,SE,145,14.0,19.2,97,0.04,,,-99.99,FreeWX-Wi 1.01,2013-03-09 12:16:00,
2013-03-09 06:21:00,34.0,33.4,28.61,SE,145,14.0,17.4,98,0.04,,,-99.99,FreeWX-Wi 1.01,2013-03-09 12:21:00,
2013-03-09 06:26:00,34.0,33.4,28.61,SE,144,15.0,19.2,98,0.04,,,-99.99,FreeWX-Wi 1.01,2013-03-09 12:26:00,
2013-03-09 06:31:00,34.0,33.4,28.61,SE,144,15.0,18.8,98,0.04,,,-99.99,FreeWX-Wi 1.01,2013-03-09 12:31:00,
2013-03-09 06:36:00,34.0,33.4,28.61,SE,143,15.0,19.7,98,0.04,,,-99.99,FreeWX-Wi 1.01,2013-03-09 12:36:00,
2013-03-09 06:41:00,34.0,33.4,28.61,SE,141,15.0,20.6,98,0.00,,,-99.99,FreeWX-Wi 1.01,2013-03-09 12:41:00,
2013-03-09 06:46:00,33.8,33.3,28.61,SE,140,15.0,17.4,98,0.04,,,-99.99,FreeWX-Wi 1.01,2013-03-09 12:46:00,
2013-03-09 06:51:00,33.8,33.3,28.61,SE,139,15.0,17.4,98,0.04,,,-99.99,FreeWX-Wi 1.01,2013-03-09 12:51:00,
2013-03-09 06:56:00,34.0,33.4,28.61,SE,139,14.0,16.8,98,0.04,,,-99.99,FreeWX-Wi 1.01,2013-03-09 12:56:00,
2013-03-09 07:01:00,34.0,33.4,28.61,SE,139,14.0,18.3,98,0.04,,,-99.99,FreeWX-Wi 1.01,2013-03-09 13:01:00,
2013-03-09 07:07:00,34.0,33.4,28.61,SE,139,14.0,19.7,98,0.04,,,-99.99,FreeWX-Wi 1.01,2013-03-09 13:07:00,
2013-03-09 07:12:00,34.2,33.6,28.61,SE,141,14.0,19.2,98,0.04,,,-99.99,FreeWX-Wi 1.01,2013-03-09 13:12:00,
2013-03-09 07:17:00,34.2,33.6,28.61,SE,143,14.0,18.8,98,0.04,,,-99.99,FreeWX-Wi 1.01,2013-03-09 13:17:00,
2013-03-09 07:22:00,34.2,33.6,28.61,SE,144,14.0,17.4,98,0.04,,,-99.99,FreeWX-Wi 1.01,2013-03-09 13:22:00,
2013-03-09 07:27:00,34.2,33.6,28.61,SE,146,14.0,17.9,98,0.04,,,-99.99,FreeWX-Wi 1.01,2013-03-09 13:27:00,
2013-03-09 07:32:00,34.3,33.8,28.61,SSE,148,14.0,18.3,98,0.04,,,-99.99,FreeWX-Wi 1.01,2013-03-09 13:32:00,
2013-03-09 07:37:00,34.3,33.8,28.61,SSE,148,14.0,17.0,98,0.04,,,-99.99,FreeWX-Wi 1.01,2013-03-09 13:37:00,
2013-03-09 07:42:00,34.3,33.8,28.61,SSE,148,14.0,17.4,98,0.08,,,-99.99,FreeWX-Wi 1.01,2013-03-09 13:42:00,
2013-03-09 07:47:00,34.3,33.8,28.58,SSE,149,14.0,17.9,98,0.08,,,-99.99,FreeWX-Wi 1.01,2013-03-09 13:47:00,
2013-03-09 07:52:00,34.3,33.8,28.58,SSE,149,14.0,18.3,98,0.08,,,-99.99,FreeWX-Wi 1.01,2013-03-09 13:52:00,
2013-03-09 07:57:00,34.3,33.8,28.58,SSE,149,13.0,15.4,98,0.08,,,-99.99,FreeWX-Wi 1.01,2013-03-09 13:57:00,
2013-03-09 08:02:00,34.3,33.8,28.58,SSE,148,14.0,18.8,98,0.08,,,-99.99,FreeWX-Wi 1.01,2013-03-09 14:02:00,
2013-03-09 08:08:00,34.3,33.8,28.58,SSE,149,14.0,17.9,98,0.08,,,-99.99,FreeWX-Wi 1.01,2013-03-09 14:08:00,
2013-03-09 08:13:00,34.3,33.8,28.58,SSE,149,13.0,16.8,98,0.08,,,-99.99,FreeWX-Wi 1.01,2013-03-09 14:13:00,
2013-03-09 08:18:00,34.3,33.8,28.58,SSE,149,13.0,16.3,98,0.08,,,-99.99,FreeWX-Wi 1.01,2013-03-09 14:18:00,
2013-03-09 08:23:00,34.3,33.8,28.58,SSE,149,14.0,20.6,98,0.08,,,-99.99,FreeWX-Wi 1.01,2013-03-09 14:23:00,
2013-03-09 08:28:00,34.5,34.0,28.58,SSE,149,14.0,17.9,98,0.08,,,-99.99,FreeWX-Wi 1.01,2013-03-09 14:28:00,
2013-03-09 08:33:00,34.5,34.0,28.55,SSE,148,14.0,20.6,98,0.08,,,-99.99,FreeWX-Wi 1.01,2013-03-09 14:33:00,
2013-03-09 08:38:00,34.5,34.0,28.55,SSE,147,15.0,21.0,98,0.08,,,-99.99,FreeWX-Wi 1.01,2013-03-09 14:38:00,
2013-03-09 08:43:00,34.7,34.2,28.55,SE,146,15.0,21.5,98,0.00,,,-99.99,FreeWX-Wi 1.01,2013-03-09 14:43:00,
2013-03-09 08:48:00,34.5,34.0,28.55,SE,145,15.0,23.7,98,0.00,,,-99.99,FreeWX-Wi 1.01,2013-03-09 14:48:00,
2013-03-09 08:53:00,34.7,34.2,28.55,SE,145,16.0,20.1,98,0.00,,,-99.99,FreeWX-Wi 1.01,2013-03-09 14:53:00,
2013-03-09 08:59:00,34.5,34.0,28.55,SE,146,16.0,20.6,98,0.00,,,-99.99,FreeWX-Wi 1.01,2013-03-09 14:59:00,
2013-03-09 09:04:00,34.7,34.2,28.55,SSE,147,16.0,20.6,98,0.00,,,-99.99,FreeWX-Wi 1.01,2013-03-09 15:04:00,
2013-03-09 09:09:00,34.7,34.2,28.55,SSE,148,16.0,21.0,98,0.00,,,-99.99,FreeWX-Wi 1.01,2013-03-09 15:09:00,
2013-03-09 09:14:00,34.7,34.2,28.55,SSE,149,16.0,19.2,98,0.00,,,-99.99,FreeWX-Wi 1.01,2013-03-09 15:14:00,
2013-03-09 09:19:00,34.7,34.2,28.55,SSE,151,16.0,23.3,98,0.00,,,-99.99,FreeWX-Wi 1.01,2013-03-09 15:19:00,
2013-03-09 09:24:00,34.9,34.3,28.55,SSE,152,16.0,19.7,98,0.00,,,-99.99,FreeWX-Wi 1.01,2013-03-09 15:24:00,
2013-03-09 09:29:00,34.9,34.3,28.55,SSE,153,15.0,17.4,98,0.00,,,-99.99,FreeWX-Wi 1.01,2013-03-09 15:29:00,
2013-03-09 09:34:00,34.7,34.2,28.55,SSE,154,15.0,17.0,98,0.00,,,-99.99,FreeWX-Wi 1.01,2013-03-09 15:34:00,
2013-03-09 09:39:00,34.7,34.2,28.55,SSE,155,15.0,17.9,98,0.00,,,-99.99,FreeWX-Wi 1.01,2013-03-09 15:39:00,
2013-03-09 09:44:00,34.5,34.0,28.55,SSE,155,14.0,17.4,98,0.00,,,-99.99,FreeWX-Wi 1.01,2013-03-09 15:44:00,
2013-03-09 09:50:00,34.5,34.0,28.55,SSE,155,14.0,18.3,98,0.04,,,-99.99,FreeWX-Wi 1.01,2013-03-09 15:50:00,
2013-03-09 09:55:00,34.5,34.0,28.55,SSE,156,14.0,17.9,98,0.04,,,-99.99,FreeWX-Wi 1.01,2013-03-09 15:55:00,
2013-03-09 10:00:00,34.5,34.0,28.55,SSE,156,14.0,16.8,98,0.04,,,-99.99,FreeWX-Wi 1.01,2013-03-09 16:00:00,
2013-03-09 10:05:00,34.5,34.0,28.55,SSE,156,14.0,19.7,98,0.04,,,-99.99,FreeWX-Wi 1.01,2013-03-09 16:05:00,
2013-03-09 10:10:00,34.7,34.2,28.55,SSE,156,14.0,17.9,98,0.04,,,-99.99,FreeWX-Wi 1.01,2013-03-09 16:10:00,
2013-03-09 10:15:00,34.7,34.2,28.55,SSE,154,15.0,23.3,98,0.04,,,-99.99,FreeWX-Wi 1.01,2013-03-09 16:15:00,
2013-03-09 10:20:00,34.7,34.2,28.52,SSE,153,15.0,17.4,98,0.04,,,-99.99,FreeWX-Wi 1.01,2013-03-09 16:20:00,
2013-03-09 10:25:00,34.9,34.3,28.52,SSE,152,15.0,21.0,98,0.04,,,-99.99,FreeWX-Wi 1.01,2013-03-09 16:25:00,
2013-03-09 10:30:00,34.9,34.3,28.52,SSE,149,15.0,21.0,98,0.04,,,-99.99,FreeWX-Wi 1.01,2013-03-09 16:30:00,
2013-03-09 10:35:00,35.1,34.5,28.52,SSE,148,14.0,18.8,98,0.04,,,-99.99,FreeWX-Wi 1.01,2013-03-09 16:35:00,
2013-03-09 10:40:00,35.1,34.5,28.52,SSE,148,14.0,20.6,98,0.04,,,-99.99,FreeWX-Wi 1.01,2013-03-09 16:40:00,
2013-03-09 10:45:00,35.1,34.5,28.52,SSE,148,14.0,18.3,98,0.00,,,-99.99,FreeWX-Wi 1.01,2013-03-09 16:45:00,
2013-03-09 10:51:00,35.1,34.5,28.52,SSE,148,14.0,17.9,98,0.00,,,-99.99,FreeWX-Wi 1.01,2013-03-09 16:51:00,
2013-03-09 10:56:00,35.1,34.5,28.52,SSE,148,15.0,21.0,98,0.00,,,-99.99,FreeWX-Wi 1.01,2013-03-09 16:56:00,
2013-03-09 11:01:00,35.2,34.7,28.52,SSE,148,15.0,22.4,98,0.00,,,-99.99,FreeWX-Wi 1.01,2013-03-09 17:01:00,
2013-03-09 11:06:00,35.2,34.7,28.52,SSE,148,15.0,21.9,98,0.00,,,-99.99,FreeWX-Wi 1.01,2013-03-09 17:06:00,
2013-03-09 11:11:00,35.4,34.9,28.52,SSE,149,15.0,18.8,98,0.00,,,-99.99,FreeWX-Wi 1.01,2013-03-09 17:11:00,
2013-03-09 11:16:00,35.4,34.9,28.50,SSE,149,15.0,18.8,98,0.00,,,-99.99,FreeWX-Wi 1.01,2013-03-09 17:16:00,
2013-03-09 11:21:00,35.4,34.9,28.50,SSE,150,15.0,19.7,98,0.00,,,-99.99,FreeWX-Wi 1.01,2013-03-09 17:21:00,
2013-03-09 11:26:00,35.4,34.9,28.50,SSE,150,15.0,18.8,98,0.00,,,-99.99,FreeWX-Wi 1.01,2013-03-09 17:26:00,
2013-03-09 11:31:00,35.4,34.9,28.50,SSE,151,15.0,17.9,98,0.00,,,-99.99,FreeWX-Wi 1.01,2013-03-09 17:31:00,
2013-03-09 11:36:00,35.4,34.9,28.50,SSE,151,14.0,16.8,98,0.00,,,-99.99,FreeWX-Wi 1.01,2013-03-09 17:36:00,
2013-03-09 11:41:00,35.4,34.9,28.50,SSE,151,14.0,18.3,98,0.00,,,-99.99,FreeWX-Wi 1.01,2013-03-09 17:41:00,
2013-03-09 11:46:00,35.4,34.9,28.50,SSE,151,14.0,19.7,98,0.00,,,-99.99,FreeWX-Wi 1.01,2013-03-09 17:46:00,
2013-03-09 11:52:00,35.4,34.9,28.50,SSE,151,14.0,22.4,98,0.00,,,-99.99,FreeWX-Wi 1.01,2013-03-09 17:52:00,
2013-03-09 18:56:00,34.9,34.3,28.41,SSE,151,6.0,10.1,98,0.00,,,-99.99,FreeWX-Wi 1.01,2013-03-10 00:56:00,
2013-03-09 19:01:00,34.9,34.3,28.41,SSE,150,6.0,8.7,98,0.00,,,-99.99,FreeWX-Wi 1.01,2013-03-10 01:01:00,
2013-03-09 19:06:00,34.9,34.3,28.41,SSE,148,7.0,10.5,98,0.00,,,-99.99,FreeWX-Wi 1.01,2013-03-10 01:06:00,
2013-03-09 19:11:00,34.9,34.3,28.41,SE,146,7.0,9.6,98,0.04,,,-99.99,FreeWX-Wi 1.01,2013-03-10 01:11:00,
2013-03-09 19:16:00,34.9,34.3,28.44,SSE,149,7.0,8.1,98,0.04,,,-99.99,FreeWX-Wi 1.01,2013-03-10 01:16:00,
2013-03-09 19:21:00,34.9,34.3,28.44,SSE,152,7.0,7.6,98,0.04,,,-99.99,FreeWX-Wi 1.01,2013-03-10 01:21:00,
2013-03-09 19:27:00,34.9,34.3,28.44,SSE,156,7.0,8.3,98,0.04,,,-99.99,FreeWX-Wi 1.01,2013-03-10 01:27:00,
2013-03-09 19:32:00,34.9,34.3,28.44,SSE,160,6.0,6.7,98,0.04,,,-99.99,FreeWX-Wi 1.01,2013-03-10 01:32:00,
2013-03-09 19:37:00,34.9,34.3,28.44,SSE,164,6.0,8.3,98,0.04,,,-99.99,FreeWX-Wi 1.01,2013-03-10 01:37:00,
2013-03-09 19:42:00,34.9,34.3,28.44,SSE,166,6.0,8.1,98,0.04,,,-99.99,FreeWX-Wi 1.01,2013-03-10 01:42:00,
2013-03-09 19:47:00,34.7,34.2,28.44,SSE,163,6.0,7.6,98,0.04,,,-99.99,FreeWX-Wi 1.01,2013-03-10 01:47:00,
2013-03-09 19:52:00,34.5,34.0,28.44,SSE,161,6.0,8.1,98,0.04,,,-99.99,FreeWX-Wi 1.01,2013-03-10 01:52:00,
2013-03-09 19:57:00,34.5,34.0,28.44,SSE,159,6.0,6.7,98,0.04,,,-99.99,FreeWX-Wi 1.01,2013-03-10 01:57:00,
2013-03-09 20:02:00,34.5,34.0,28.44,SSE,157,6.0,6.3,98,0.04,,,-99.99,FreeWX-Wi 1.01,2013-03-10 02:02:00,
2013-03-09 20:07:00,34.5,34.0,28.44,SSE,155,6.0,6.3,98,0.00,,,-99.99,FreeWX-Wi 1.01,2013-03-10 02:07:00,
2013-03-09 20:12:00,34.5,34.0,28.44,SSE,156,5.0,5.8,98,0.00,,,-99.99,FreeWX-Wi 1.01,2013-03-10 02:12:00,
2013-03-09 20:17:00,34.7,34.2,28.44,SSE,158,5.0,6.3,98,0.00,,,-99.99,FreeWX-Wi 1.01,2013-03-10 02:17:00,
2013-03-09 20:23:00,34.7,34.2,28.44,SSE,161,5.0,5.8,98,0.00,,,-99.99,FreeWX-Wi 1.01,2013-03-10 02:23:00,
2013-03-09 20:28:00,34.9,34.3,28.44,SSE,162,5.0,5.8,98,0.00,,,-99.99,FreeWX-Wi 1.01,2013-03-10 02:28:00,
2013-03-09 20:33:00,34.7,34.2,28.44,SSE,161,5.0,5.8,98,0.00,,,-99.99,FreeWX-Wi 1.01,2013-03-10 02:33:00,
2013-03-09 20:38:00,34.7,34.2,28.44,SSE,161,5.0,5.8,98,0.00,,,-99.99,FreeWX-Wi 1.01,2013-03-10 02:38:00,
2013-03-09 20:43:00,34.7,34.2,28.44,SSE,158,4.0,6.3,98,0.00,,,-99.99,FreeWX-Wi 1.01,2013-03-10 02:43:00,
2013-03-09 20:48:00,34.9,34.3,28.44,SSE,155,4.0,5.8,98,0.00,,,-99.99,FreeWX-Wi 1.01,2013-03-10 02:48:00,
2013-03-09 20:53:00,34.9,34.3,28.44,SSE,151,4.0,5.4,98,0.00,,,-99.99,FreeWX-Wi 1.01,2013-03-10 02:53:00,
2013-03-09 20:58:00,34.9,34.3,28.44,SSE,148,4.0,6.3,98,0.00,,,-99.99,FreeWX-Wi 1.01,2013-03-10 02:58:00,
2013-03-09 21:03:00,34.9,34.3,28.44,SSE,148,4.0,6.3,98,0.00,,,-99.99,FreeWX-Wi 1.01,2013-03-10 03:03:00,
2013-03-09 21:08:00,34.9,34.3,28.44,SSE,148,4.0,6.3,98,0.00,,,-99.99,FreeWX-Wi 1.01,2013-03-10 03:08:00,
2013-03-09 21:14:00,34.9,34.3,28.44,SSE,149,4.0,6.3,98,0.00,,,-99.99,FreeWX-Wi 1.01,2013-03-10 03:14:00,
2013-03-09 21:19:00,34.9,34.3,28.44,SSE,150,4.0,6.3,98,0.00,,,-99.99,FreeWX-Wi 1.01,2013-03-10 03:19:00,
2013-03-09 21:24:00,34.9,34.3,28.44,SSE,151,4.0,5.8,98,0.00,,,-99.99,FreeWX-Wi 1.01,2013-03-10 03:24:00,
2013-03-09 21:29:00,35.1,34.5,28.44,SSE,154,4.0,4.0,98,0.00,,,-99.99,FreeWX-Wi 1.01,2013-03-10 03:29:00,
2013-03-09 21:34:00,34.9,34.3,28.47,SSE,157,4.0,4.0,98,0.00,,,-99.99,FreeWX-Wi 1.01,2013-03-10 03:34:00,
2013-03-09 21:39:00,34.9,34.3,28.47,SSE,162,3.0,3.6,98,0.00,,,-99.99,FreeWX-Wi 1.01,2013-03-10 03:39:00,
2013-03-09 21:44:00,34.9,34.3,28.47,SSE,168,3.0,3.6,98,0.00,,,-99.99,FreeWX-Wi 1.01,2013-03-10 03:44:00,
2013-03-09 21:49:00,34.9,34.3,28.47,South,175,3.0,3.1,98,0.00,,,-99.99,FreeWX-Wi 1.01,2013-03-10 03:49:00,
2013-03-09 21:54:00,35.1,34.5,28.47,South,184,2.0,3.1,98,0.00,,,-99.99,FreeWX-Wi 1.01,2013-03-10 03:54:00,
2013-03-09 21:59:00,34.9,34.3,28.47,SSW,193,2.0,2.7,98,0.00,,,-99.99,FreeWX-Wi 1.01,2013-03-10 03:59:00,
2013-03-09 22:04:00,34.9,34.3,28.47,SSW,200,2.0,2.7,98,0.00,,,-99.99,FreeWX-Wi 1.01,2013-03-10 04:04:00,
2013-03-09 22:09:00,34.7,34.2,28.47,SSW,205,1.0,0.0,98,0.00,,,-99.99,FreeWX-Wi 1.01,2013-03-10 04:09:00,
2013-03-09 22:14:00,34.5,34.0,28.47,SSW,213,1.0,0.0,98,0.00,,,-99.99,FreeWX-Wi 1.01,2013-03-10 04:14:00,
2013-03-09 22:19:00,34.5,34.0,28.47,North,-999,0.0,0.0,98,0.00,,,-99.99,FreeWX-Wi 1.01,2013-03-10 04:19:00,
2013-03-09 22:25:00,34.3,33.8,28.47,North,-999,0.0,0.0,98,0.00,,,-99.99,FreeWX-Wi 1.01,2013-03-10 04:25:00,
2013-03-09 22:30:00,34.5,34.0,28.47,North,-999,0.0,0.0,98,0.00,,,-99.99,FreeWX-Wi 1.01,2013-03-10 04:30:00,
2013-03-09 22:35:00,34.5,34.0,28.47,North,-999,0.0,0.0,98,0.00,,,-99.99,FreeWX-Wi 1.01,2013-03-10 04:35:00,
2013-03-09 22:40:00,34.5,34.0,28.47,North,-999,0.0,0.0,98,0.00,,,-99.99,FreeWX-Wi 1.01,2013-03-10 04:40:00,
2013-03-09 22:45:00,34.5,34.0,28.47,North,-999,0.0,0.0,98,0.00,,,-99.99,FreeWX-Wi 1.01,2013-03-10 04:45:00,
2013-03-09 22:50:00,34.5,34.0,28.47,North,-999,0.0,0.0,98,0.00,,,-99.99,FreeWX-Wi 1.01,2013-03-10 04:50:00,
2013-03-09 22:55:00,34.5,34.0,28.47,North,-999,0.0,0.0,98,0.00,,,-99.99,FreeWX-Wi 1.01,2013-03-10 04:55:00,
2013-03-09 23:00:00,34.5,34.0,28.47,North,-999,0.0,0.0,98,0.00,,,-99.99,FreeWX-Wi 1.01,2013-03-10 05:00:00,
2013-03-09 23:05:00,34.5,34.0,28.47,North,-999,0.0,0.0,98,0.00,,,-99.99,FreeWX-Wi 1.01,2013-03-10 05:05:00,
2013-03-09 23:10:00,34.5,34.0,28.47,North,-999,0.0,0.0,98,0.00,,,-99.99,FreeWX-Wi 1.01,2013-03-10 05:10:00,
2013-03-09 23:15:00,34.5,34.0,28.47,North,-999,0.0,0.0,98,0.00,,,-99.99,FreeWX-Wi 1.01,2013-03-10 05:15:00,
2013-03-09 23:21:00,34.5,34.0,28.47,North,-999,0.0,0.0,98,0.00,,,-99.99,FreeWX-Wi 1.01,2013-03-10 05:21:00,
2013-03-09 23:26:00,34.5,34.0,28.47,North,-999,0.0,0.0,98,0.00,,,-99.99,FreeWX-Wi 1.01,2013-03-10 05:26:00,
2013-03-09 23:31:00,34.5,34.0,28.47,North,-999,0.0,3.1,98,0.00,,,-99.99,FreeWX-Wi 1.01,2013-03-10 05:31:00,
2013-03-09 23:36:00,34.5,34.0,28.47,North,-999,0.0,3.6,98,0.00,,,-99.99,FreeWX-Wi 1.01,2013-03-10 05:36:00,
2013-03-09 23:41:00,34.5,34.0,28.47,South,183,1.0,4.0,98,0.00,,,-99.99,FreeWX-Wi 1.01,2013-03-10 05:41:00,
2013-03-09 23:46:00,34.5,34.0,28.47,SSE,156,1.0,0.0,98,0.00,,,-99.99,FreeWX-Wi 1.01,2013-03-10 05:46:00,
2013-03-09 23:51:00,34.5,34.0,28.47,SE,135,1.0,0.0,98,0.00,,,-99.99,FreeWX-Wi 1.01,2013-03-10 05:51:00,
2013-03-09 23:56:00,34.5,34.0,28.47,SE,124,1.0,0.0,98,0.00,,,-99.99,FreeWX-Wi 1.01,2013-03-10 05:56:00,